GCFIZ EGCJ-EGNM

Flight info

Callsign GCFIZ
Flight time 0h 14m
Altitude 2500
Route EGCJ DEWSBURY VRP EGNM
Aircraft C172/L-G/L

Departure

Time 2026-05-05 08:20
Airport Sherburn-in-Elmet Airfield (EGCJ)

Arrival

Time 2026-05-05 08:34
Airport Leeds Bradford Airport (EGNM)
Time Latitude Longitude Altitude Speed Heading
2026-05-05 08:12 53.78847 -1.21039 28 ft 0 kts 333°
2026-05-05 08:16 53.78849 -1.21092 28 ft 12 kts 238°
2026-05-05 08:17 53.78789 -1.21238 28 ft 16 kts 195°
2026-05-05 08:17 53.78663 -1.21272 28 ft 19 kts 195°
2026-05-05 08:17 53.78526 -1.21304 28 ft 19 kts 188°
2026-05-05 08:17 53.78404 -1.21319 28 ft 13 kts 138°
2026-05-05 08:18 53.78382 -1.21174 28 ft 11 kts 103°
2026-05-05 08:18 53.78370 -1.21151 28 ft 0 kts 192°
2026-05-05 08:19 53.78367 -1.21152 28 ft 1 kts 192°
2026-05-05 08:19 53.78353 -1.21275 28 ft 33 kts 283°
2026-05-05 08:19 53.78442 -1.21900 77 ft 64 kts 284°
2026-05-05 08:19 53.78536 -1.22680 218 ft 72 kts 273°
2026-05-05 08:20 53.78553 -1.23537 399 ft 75 kts 271°
2026-05-05 08:20 53.78562 -1.24437 579 ft 78 kts 270°
2026-05-05 08:20 53.78566 -1.25373 759 ft 83 kts 269°
2026-05-05 08:20 53.78459 -1.26351 942 ft 87 kts 243°
2026-05-05 08:21 53.78149 -1.27240 1120 ft 91 kts 238°
2026-05-05 08:21 53.77806 -1.28150 1298 ft 94 kts 237°
2026-05-05 08:21 53.77449 -1.29093 1476 ft 96 kts 238°
2026-05-05 08:21 53.77043 -1.30002 1653 ft 97 kts 231°
2026-05-05 08:22 53.76651 -1.30931 1828 ft 98 kts 238°
2026-05-05 08:22 53.76312 -1.31948 1975 ft 101 kts 243°
2026-05-05 08:22 53.75995 -1.33084 2015 ft 113 kts 247°
2026-05-05 08:22 53.75682 -1.34352 2009 ft 122 kts 249°
2026-05-05 08:23 53.75368 -1.35712 2007 ft 126 kts 250°
2026-05-05 08:23 53.75055 -1.37105 2005 ft 127 kts 250°
2026-05-05 08:23 53.74740 -1.38528 2005 ft 128 kts 250°
2026-05-05 08:23 53.74430 -1.39932 2005 ft 128 kts 250°
2026-05-05 08:24 53.74118 -1.41345 2004 ft 128 kts 251°
2026-05-05 08:24 53.73804 -1.42764 2004 ft 128 kts 251°
2026-05-05 08:24 53.73489 -1.44190 2004 ft 128 kts 251°
2026-05-05 08:24 53.73179 -1.45594 2004 ft 128 kts 251°
2026-05-05 08:25 53.72864 -1.47015 2004 ft 128 kts 251°
2026-05-05 08:25 53.72550 -1.48430 2004 ft 128 kts 251°
2026-05-05 08:25 53.72240 -1.49830 2004 ft 128 kts 251°
2026-05-05 08:25 53.71923 -1.51257 2004 ft 128 kts 251°
2026-05-05 08:26 53.71611 -1.52663 2004 ft 128 kts 251°
2026-05-05 08:26 53.71297 -1.54072 2004 ft 128 kts 251°
2026-05-05 08:26 53.70985 -1.55476 2004 ft 128 kts 251°
2026-05-05 08:26 53.70669 -1.56893 2004 ft 128 kts 251°
2026-05-05 08:27 53.70355 -1.58302 2004 ft 128 kts 251°
2026-05-05 08:27 53.70040 -1.59717 2004 ft 128 kts 251°
2026-05-05 08:27 53.69732 -1.61140 2004 ft 128 kts 256°
2026-05-05 08:27 53.69872 -1.62568 2007 ft 128 kts 303°
2026-05-05 08:28 53.70559 -1.63517 2008 ft 128 kts 335°
2026-05-05 08:28 53.71395 -1.63983 2006 ft 128 kts 348°
2026-05-05 08:28 53.72275 -1.64248 2005 ft 128 kts 353°
2026-05-05 08:28 53.73170 -1.64420 2005 ft 128 kts 355°
2026-05-05 08:29 53.74063 -1.64550 2005 ft 128 kts 356°
2026-05-05 08:29 53.74943 -1.64664 2004 ft 128 kts 357°
2026-05-05 08:29 53.75838 -1.64766 1967 ft 131 kts 360°
2026-05-05 08:30 53.77277 -1.63148 1821 ft 122 kts 49°
2026-05-05 08:30 53.77838 -1.62107 1743 ft 118 kts 49°
2026-05-05 08:30 53.78380 -1.61090 1673 ft 115 kts 50°
2026-05-05 08:30 53.78917 -1.60083 1620 ft 113 kts 49°
2026-05-05 08:31 53.79438 -1.59104 1568 ft 111 kts 50°
2026-05-05 08:31 53.79961 -1.58156 1512 ft 110 kts 41°
2026-05-05 08:31 53.80673 -1.57804 1441 ft 110 kts 356°
2026-05-05 08:31 53.81381 -1.58336 1334 ft 114 kts 326°
2026-05-05 08:32 53.82008 -1.59149 1290 ft 105 kts 323°
2026-05-05 08:32 53.82543 -1.59882 1211 ft 98 kts 321°
2026-05-05 08:32 53.83055 -1.60656 1108 ft 97 kts 319°
2026-05-05 08:32 53.83543 -1.61403 1033 ft 94 kts 319°
2026-05-05 08:33 53.84023 -1.62132 980 ft 91 kts 319°
2026-05-05 08:33 53.84499 -1.62853 904 ft 91 kts 319°
2026-05-05 08:33 53.84960 -1.63546 830 ft 85 kts 320°
2026-05-05 08:33 53.85366 -1.64173 778 ft 73 kts 318°
2026-05-05 08:34 53.85714 -1.64719 726 ft 63 kts 319°
2026-05-05 08:34 53.86019 -1.65198 690 ft 57 kts 319°
2026-05-05 08:34 53.86308 -1.65627 685 ft 53 kts 319°
2026-05-05 08:34 53.86524 -1.65956 685 ft 22 kts 314°
2026-05-05 08:35 53.86523 -1.66135 685 ft 13 kts 225°
2026-05-05 08:35 53.86503 -1.66170 685 ft 0 kts 226°
2026-05-05 08:35 53.86480 -1.66227 685 ft 9 kts 269°
2026-05-05 08:35 53.86525 -1.66318 685 ft 10 kts 314°
2026-05-05 08:36 53.86563 -1.66417 685 ft 9 kts 297°
2026-05-05 08:36 53.86593 -1.66504 685 ft 8 kts 300°
2026-05-05 08:36 53.86598 -1.66580 685 ft 6 kts 217°
2026-05-05 08:36 53.86562 -1.66593 685 ft 2 kts 196°
2026-05-05 08:37 53.86557 -1.66608 685 ft 0 kts 295°